Location: Newark
(45.5000°N, 11.4167°E)
Time: 23:28:22
(UTC+00:00)

Altair - Pass Details

Date: 28 August 2019
Orbit: 1501 x 1683 km, 47.2° (Epoch: 19 September)

Event Time Altitude Azimuth Distance (km) Brightness Sun altitude
Exits shadow 22:32:46 14° 93° (E) 3,572 9.2 -34.1°
Drops below altitude 10° 22:34:16 10° 85° (E) 3,846 9.5 -34.2°
Sets 22:38:23 0° 70° (ENE) 4,803 10.2 -34.3°
